Time,TemperatureF,DewpointF,PressureIn,WindDirection,WindDirectionDegrees,WindSpeedMPH,WindSpeedGustMPH,Humidity,HourlyPrecipIn,Conditions,Clouds,dailyrainin,SoftwareType,DateUTC
2013-02-14 00:00:00,25.8,23.0,29.77,NNW,344,3.0,9.0,89,0.00,,,0.00,Wunderground v.1.15,2013-02-14 05:00:00,
2013-02-14 00:30:00,24.4,21.9,29.77,NNW,344,5.0,5.0,90,0.00,,,0.00,Wunderground v.1.15,2013-02-14 05:30:00,
2013-02-14 01:00:00,25.1,23.1,29.78,West,269,6.0,6.0,92,0.00,,,0.00,Wunderground v.1.15,2013-02-14 06:00:00,
2013-02-14 01:30:00,25.6,23.6,29.79,West,272,1.0,1.0,92,0.00,,,0.00,Wunderground v.1.15,2013-02-14 06:30:00,
2013-02-14 02:00:00,26.1,23.8,29.80,West,271,5.0,5.0,91,0.00,,,0.00,Wunderground v.1.15,2013-02-14 07:00:00,
2013-02-14 02:30:00,27.0,24.5,29.81,West,271,4.0,9.0,90,0.00,,,0.00,Wunderground v.1.15,2013-02-14 07:30:00,
2013-02-14 03:00:00,27.6,24.5,29.80,West,272,5.0,5.0,88,0.00,,,0.00,Wunderground v.1.15,2013-02-14 08:00:00,
2013-02-14 03:30:00,27.9,24.8,29.80,WSW,254,6.0,9.0,88,0.00,,,0.00,Wunderground v.1.15,2013-02-14 08:30:00,
2013-02-14 04:30:00,27.9,24.5,29.82,WSW,254,6.0,6.0,87,0.00,,,0.00,Wunderground v.1.15,2013-02-14 09:30:00,
2013-02-14 05:00:00,27.9,24.5,29.83,WSW,257,6.0,6.0,87,0.00,,,0.00,Wunderground v.1.15,2013-02-14 10:00:00,
2013-02-14 05:30:00,27.8,24.4,29.83,WSW,257,5.0,5.0,87,0.00,,,0.00,Wunderground v.1.15,2013-02-14 10:30:00,
2013-02-14 06:00:00,27.5,24.4,29.84,WSW,256,5.0,9.0,88,0.00,,,0.00,Wunderground v.1.15,2013-02-14 11:00:00,
2013-02-14 06:30:00,27.4,24.3,29.85,WSW,246,5.0,9.0,88,0.00,,,0.00,Wunderground v.1.15,2013-02-14 11:30:00,
2013-02-14 07:00:00,27.4,24.3,29.86,WSW,246,5.0,9.0,88,0.00,,,0.00,Wunderground v.1.15,2013-02-14 12:00:00,
2013-02-14 07:30:00,27.0,23.9,29.87,SW,222,7.0,9.0,88,0.00,,,0.00,Wunderground v.1.15,2013-02-14 12:30:00,
2013-02-14 08:00:00,26.2,23.4,29.88,SW,219,8.0,10.0,89,0.00,,,0.00,Wunderground v.1.15,2013-02-14 13:00:00,
2013-02-14 08:30:00,26.1,23.0,29.89,SSW,211,8.0,8.0,88,0.00,,,0.00,Wunderground v.1.15,2013-02-14 13:30:00,
2013-02-14 09:00:00,26.5,23.4,29.89,SSW,210,9.0,9.0,88,0.00,,,0.00,Wunderground v.1.15,2013-02-14 14:00:00,
2013-02-14 09:30:00,27.9,24.5,29.89,South,188,7.0,10.0,87,0.00,,,0.00,Wunderground v.1.15,2013-02-14 14:30:00,
2013-02-14 10:00:00,29.1,24.9,29.88,SSW,205,6.0,9.0,84,0.00,,,0.00,Wunderground v.1.15,2013-02-14 15:00:00,
2013-02-14 10:30:00,31.0,26.1,29.87,South,175,6.0,6.0,82,0.00,,,0.00,Wunderground v.1.15,2013-02-14 15:30:00,
2013-02-14 11:00:00,32.4,26.0,29.85,SSW,207,6.0,9.0,77,0.00,,,0.00,Wunderground v.1.15,2013-02-14 16:00:00,
2013-02-14 11:30:00,33.9,26.5,29.85,South,175,5.0,9.0,74,0.00,,,0.00,Wunderground v.1.15,2013-02-14 16:30:00,
2013-02-14 12:00:00,35.8,28.0,29.84,SSW,209,6.0,9.0,73,0.00,,,0.00,Wunderground v.1.15,2013-02-14 17:00:00,
2013-02-14 12:30:00,37.6,29.0,29.83,SSW,211,6.0,9.0,71,0.00,,,0.00,Wunderground v.1.15,2013-02-14 17:30:00,
2013-02-14 13:00:00,39.5,29.8,29.81,South,186,7.0,9.0,68,0.00,,,0.00,Wunderground v.1.15,2013-02-14 18:00:00,
2013-02-14 13:30:00,39.3,30.3,29.81,SSW,205,8.0,9.0,70,0.00,,,0.00,Wunderground v.1.15,2013-02-14 18:30:00,
2013-02-14 14:00:00,39.0,30.0,29.80,SSW,212,9.0,9.0,70,0.00,,,0.00,Wunderground v.1.15,2013-02-14 19:00:00,
2013-02-14 14:30:00,39.1,31.8,29.80,SSW,213,10.0,15.0,75,0.00,,,0.00,Wunderground v.1.15,2013-02-14 19:30:00,
2013-02-14 15:00:00,38.4,32.1,29.80,SW,219,11.0,11.0,78,0.00,,,0.00,Wunderground v.1.15,2013-02-14 20:00:00,
2013-02-14 15:30:00,37.1,32.7,29.80,SSW,207,11.0,11.0,84,0.00,,,0.00,Wunderground v.1.15,2013-02-14 20:30:00,
2013-02-14 16:00:00,36.1,32.6,29.80,SSW,208,10.0,10.0,87,0.00,,,0.00,Wunderground v.1.15,2013-02-14 21:00:00,
2013-02-14 16:30:00,35.3,32.9,29.79,South,186,8.0,9.0,91,0.00,,,0.00,Wunderground v.1.15,2013-02-14 21:30:00,
2013-02-14 17:00:00,34.9,32.8,29.79,SSW,192,7.0,9.0,92,0.00,,,0.00,Wunderground v.1.15,2013-02-14 22:00:00,
2013-02-14 17:30:00,34.8,33.0,29.78,SSW,198,6.0,10.0,93,0.00,,,0.01,Wunderground v.1.15,2013-02-14 22:30:00,
2013-02-14 18:00:00,34.7,32.9,29.79,SSW,198,7.0,7.0,93,0.00,,,0.01,Wunderground v.1.15,2013-02-14 23:00:00,
2013-02-14 18:30:00,34.5,33.0,29.79,SSW,211,9.0,9.0,94,0.00,,,0.01,Wunderground v.1.15,2013-02-14 23:30:00,
2013-02-14 19:00:00,34.3,32.8,29.79,SSW,208,9.0,10.0,94,0.00,,,0.01,Wunderground v.1.15,2013-02-15 00:00:00,
2013-02-14 19:30:00,34.3,33.0,29.80,SSW,197,10.0,10.0,95,0.00,,,0.01,Wunderground v.1.15,2013-02-15 00:30:00,
2013-02-14 20:00:00,34.4,33.1,29.79,SSW,202,9.0,9.0,95,0.00,,,0.01,Wunderground v.1.15,2013-02-15 01:00:00,
2013-02-14 20:30:00,34.4,33.1,29.79,SSW,211,9.0,9.0,95,0.00,,,0.01,Wunderground v.1.15,2013-02-15 01:30:00,
2013-02-14 21:00:00,34.1,32.8,29.79,SSW,201,8.0,8.0,95,0.00,,,0.01,Wunderground v.1.15,2013-02-15 02:00:00,
2013-02-14 21:30:00,34.0,33.0,29.79,SSW,213,7.0,7.0,96,0.00,,,0.01,Wunderground v.1.15,2013-02-15 02:30:00,
2013-02-14 22:00:00,34.3,33.3,29.78,SW,227,8.0,9.0,96,0.00,,,0.02,Wunderground v.1.15,2013-02-15 03:00:00,
2013-02-14 22:30:00,34.6,33.6,29.76,SW,217,8.0,9.0,96,0.00,,,0.03,Wunderground v.1.15,2013-02-15 03:30:00,
2013-02-14 23:00:00,34.6,33.6,29.76,SW,221,9.0,9.0,96,0.00,,,0.04,Wunderground v.1.15,2013-02-15 04:00:00,
2013-02-14 23:30:00,35.0,34.0,29.76,SW,217,9.0,13.0,96,0.00,,,0.05,Wunderground v.1.15,2013-02-15 04:30:00,